Location: Hungerford
(51.4167°N, 1.5167°W)
Time: 12:11:31
(UTC+00:00)

NOSS 8 (H) - Pass Details

Date: 18 September 2020
Orbit: 384 x 1790 km, 63.3° (Epoch: 24 October)

Event Time Altitude Azimuth Distance (km) Brightness Sun altitude
Rises 19:07:37 0° 212° (SSW) 2,411 8.3 -9.3°
Reaches altitude 10° 19:09:47 10° 207° (SSW) 1,466 7.2 -9.6°
Maximum altitude 19:12:48 51° 130° (SE) 497 4.2 -10.1°
Drops below altitude 10° 19:15:45 10° 53° (NE) 1,435 6.6 -10.5°
Enters shadow 19:17:02 - 49° (NE) 1,991 7.4 -10.7°
